    Observer details:
    160 Castelmartini.  Observers M. Jaeger, E. Prosperi, S. Prosperi, W. Vollmann.
        Measurer E. Prosperi.  0.35-m f/10 Schmidt-Cassegrain + CCD.
    194 Tivoli.  Observers G. Lehmann, A. Knoefel.  0.4-m f/8 reflector + CCD.
    203 GiaGa Observatory.  Observers S. Foglia, G. Galli.  Measurer G. Galli.
        0.28-m f/6.8 Schmidt-Cassegrain + CCD.
    704 Lincoln Laboratory ETS, New Mexico.  Observers M. Blythe, G. Spitz,
        R. Brungard, J. Paige, P. Festler, T. McVey, A. Valdivia, C. Gall.  1.0-m
        f/2.15 reflector + CCD.
    807 Cerro Tololo.  Observers T. Linder, R. Holmes.  0.41-m f/11
        Ritchey-Chretien + CCD.
    954 Teide Observatory.  Observer N. D. Diaz.  0.26-m f/11.6 reflector + CCD.
    A17 Guidestar Observatory, Weinheim.  Observers M. Emmerich, S. Melchert.
        0.36-m f/6 Schmidt-Cassegrain + CCD.
    B96 Brixiis Observatory, Kruibeke.  Observer E. Bryssinck.  0.4-m f/3.8
        astrograph + CCD.
    C23 Olmen.  Observer A. Diepvens.  0.20-m f/9 refractor + CCD.
    C44 A. Volta Observatory, Lanzo d'Intelvi.  Observer F. Tozzi.  0.40-m f/3.5
        reflector + CCD.
    D90 RAS Observatory, Moorook.  Observer K. Hills.  0.41-m f/9 Ritchey-Chretien
        + CCD.
    H21 Astronomical Research Observatory, Westfield.  Observer R. Holmes.
        Measurers T. Vorobjov, L. Buzzi, S. Foglia.  0.61-m f/4.0 astrograph + CCD,
        0.81-m f/4.0 astrograph + CCD.
    H36 Sandlot Observatory, Scranton.  Observer G. Hug.  0.56-m reflector + CCD.
    I48 Observatorio El Catalejo, Santa Rosa.  Observer J. Spagnotto.  0.20-m f/5
        reflector + CCD.
    I93 St Pardon de Conques.  Observers F. Losse, N. Diaz.  Measurer F. Losse.
        0.40-m f/5.0 reflector + CCD.
    J75 OAM Observatory, La Sagra.  Observers S. Sanchez, J. Nomen, M. Hurtado,
        J. A. Jaume, W. K. Y. Yeung, P. Rios, F. Serra, T. Valls, V. Rios.  0.45-m
        f/2.8 reflector + CCD.
    J95 Great Shefford.  Observer P. Birtwhistle.  0.40-m f/6.0 Schmidt-Cassegrain
        + CCD.
    
    Orbital elements:
    2012 PG6                                                 Earth MOID = 0.0533 AU
    Epoch 2012 Sept. 30.0 TT = JDT 2456200.5                MPC
    M 301.41450              (2000.0)            P               Q
    n   1.28613952     Peri.  169.71974     -0.52749797     -0.84532983
    a   0.8374213      Node   312.05858     +0.77113680     -0.43461867
    e   0.6161404      Incl.    6.54566     +0.35650235     -0.31068327
    P   0.77           H   20.1           G   0.15           U   9
    Residuals in seconds of arc
    120810 J75  0.5-  0.0     120810 160  0.1+  0.2+    120811 C44  0.1-  0.3+
    120810 J75  0.2-  0.1-    120810 B96  0.4-  1.1+    120811 194  0.1+  0.0
    120810 J75  0.1+  0.4+    120810 B96  0.8+  0.3+    120811 194  0.1-  0.0
    120810 J75  0.5+  0.1+    120810 B96  0.2+  0.4-    120811 194  0.0   0.2-
    120810 J75  0.1+  0.0     120810 B96  0.9+  1.1+    120811 194  0.1+  0.0
    120810 J75  0.2+  0.1-    120810 B96  0.3-  0.5-    120811 C23  1.1+  0.3+
    120810 J95  0.3+  0.1-    120810 B96  0.0   1.0+    120811 C23  0.3+  0.0
    120810 J95  0.1+  0.3-    120810 203  0.5-  0.0     120811 C23  0.3-  0.3-
    120810 J95  0.3-  0.9-    120810 J95  0.3-  0.2-    120811 C23  0.3+  0.2+
    120810 807  0.1-  0.1-    120810 J95  0.0   0.1+    120811 C23  1.0-  0.4-
    120810 I93  0.1-  0.3+    120810 J95  0.3-  0.2-    120811 C23  1.8+  0.2-
    120810 807  0.0   0.2+    120811 203  0.4-  0.2+    120811 C23  1.6-  0.1-
    120810 I93  0.4-  0.7+    120811 C23  0.1+  0.2+    120811 C23  1.0+  0.1-
    120810 I93  0.5-  0.3+    120811 C23  0.6-  0.4+    120812 160  0.2-  0.1+
    120810 J75  0.0   0.1-    120811 C23  0.2-  0.9+    120812 160  0.0   0.1-
    120810 J75  0.2+  0.1+    120811 C23  0.3+  0.1+    120812 160  0.2-  0.2-
    120810 J75  0.3+  0.4+    120811 C23  1.2+  0.1+    120812 807  0.1-  0.0
    120810 H21  0.1-  0.0     120811 C23  0.9-  0.5+    120812 807  0.3-  0.4-
    120810 H21  0.1+  0.0     120811 C23  0.2-  0.5-    120812 807  0.0   0.1+
    120810 H21  0.2-  0.1+    120811 954  0.5-  0.1+    120812 807  0.1-  0.2-
    120810 H21  0.0   0.3+    120811 954  0.5-  1.5-    120812 I48  0.1-  0.3+
    120810 704  0.5+  0.9+    120811 954  0.3+  0.4-    120812 I48  0.1-  0.4-
    120810 H36  0.3-  0.2+    120811 954  1.5+  0.4+    120812 I48  0.7+  0.1-
    120810 H36  0.6-  0.0     120811 H21  0.2-  0.1+    120812 H21  0.2+  0.0
    120810 H36  0.0   0.0     120811 H21  0.2-  0.2+    120812 H21  0.1+  0.0
    120810 704  1.3+  0.6+    120811 H21  0.0   0.0     120812 H21  0.0   0.0
    120810 H36  0.5-  0.1-    120811 H21  0.1-  0.0     120812 H21  0.0   0.0
    120810 704  0.3+  0.5+    120811 A17  0.0   0.5-    120812 D90  0.2-  0.1-
    120810 704  0.3-  0.7+    120811 A17  0.2-  0.3+    120812 D90  0.1-  0.0
    120810 160  0.4+  0.7+    120811 A17  0.5+  0.6-    120812 D90  0.3-  0.0
    120810 160  0.1-  0.1+    120811 C44  0.2-  0.0
    120810 160  0.3+  0.0     120811 C44  0.3-  0.4+
    
    Ephemeris:
    2012 PG6                 a,e,i = 0.84, 0.62, 7                   q = 0.3215
    Date    TT    R. A. (2000) Decl.     Delta      r     Elong.  Phase     V
    2012 07 13    23 12 53.2 -06 33 28   0.4739  1.3415   124.2    38.8    20.7
    ...
    2012 07 28    22 47 20.1 -06 51 25   0.3397  1.3070   144.5    26.8    19.5
    ...
    2012 08 05    22 17 27.7 -07 43 44   0.2790  1.2790   159.2    16.3    18.7
    ...
    2012 08 11    21 43 56.5 -08 44 40   0.2420  1.2536   171.9     6.6    18.0
    2012 08 12    21 37 18.0 -08 56 14   0.2368  1.2489   173.5     5.2    17.9
    2012 08 13    21 30 21.3 -09 08 02   0.2319  1.2442   174.5     4.5    17.8
    ...
    2012 08 19    20 42 50.2 -10 18 54   0.2095  1.2134   162.4    14.6    17.9
    ...
    2012 08 27    19 30 43.1 -11 23 58   0.2001  1.1659   137.6    35.8    18.4
    ...
    2012 09 11    17 37 37.2 -11 03 53   0.2322  1.0556    95.8    71.6    19.6
    
    A. U. Tomatic                (C) Copyright 2012 MPC           M.P.E.C. 2012-P27
    

    Read MPEC 2012-P26 Read MPEC 2012-P28


    MPEC number:

    Enter an MPEC number in one of the following forms:

    • 1997-B01 (the full form)
    • J97B01 (the packed version of the full form)
    • B01 (the abbreviated form)